St. Johns, AZ

12:02 AM MST on December 17, 2017 (GMT -0700)
Saint Johns Industrial

Weather History for KSJN - April, 2013

Change the Weather History Date:

Saturday, April 6, 2013

  Actual Average (KLSB) Record (KLSB)
Temperature  
Mean Temperature 52 °F -  
Max Temperature 69 °F 75 °F 80 °F (2016)
Min Temperature 34 °F 35 °F 35 °F (2014)
Degree Days  
Heating Degree Days 14    
Growing Degree Days 2 (Base 50)    
Moisture  
Dew Point 22 °F    
Average Humidity 25    
Maximum Humidity 48    
Minimum Humidity 12    
Precipitation  
Precipitation 0.00 in - - ()
Sea Level Pressure  
Sea Level Pressure 29.83 in    
Wind  
Wind Speed 9 mph (WSW)    
Max Wind Speed 20 mph    
Max Gust Speed 25 mph    
Visibility 10 miles    
Events      
Averages and records for this station are not official NWS values.
T = Trace of Precipitation, MM = Missing Value Source: NWS Daily Summary

Daily Weather History Graph

Daily Weather History Graph

Search for Another Location

Airport or City:

Trip Planner

Search our weather history database for the weather conditions in past years. The results will help you decide how hot, cold, wet, or windy it might be!

Date:

Astronomy

Apr. 06, 2013 Rise Set
Actual Time 5:57 AM MST 6:42 PM MST
Civil Twilight 5:31 AM MST 7:08 PM MST
Nautical Twilight 5:01 AM MST 7:38 PM MST
Astronomical Twilight 4:31 AM MST 8:09 PM MST
Moon 3:34 AM MST (4/6) 3:22 PM MST (4/6)
Length of Visible Light 13h 36m
Length of Day
12h 45m
Waning Crescent, 14% of the Moon is Illuminated
Apr 6
Waning Crescent
Apr 10
New
Apr 18
First Quarter
Apr 25
Full
May 2
Last Quarter

Hourly Weather History & Observations

Time (MST) Temp. Windchill Dew Point Humidity Pressure Visibility Wind Dir Wind Speed Gust Speed Precip Events Conditions
12:54 AM 51.1 °F - 25.0 °F 36% 29.82 in 10.0 mi WSW 10.4 mph - N/A   Clear
1:54 AM 50.0 °F - 25.0 °F 38% 29.80 in 10.0 mi West 4.6 mph - N/A   Clear
2:54 AM 48.9 °F - 24.1 °F 38% 29.81 in 10.0 mi NW 3.5 mph - N/A   Clear
3:54 AM 48.9 °F - 23.0 °F 36% 29.82 in 10.0 mi West 5.8 mph - N/A   Clear
4:54 AM 48.0 °F - 23.0 °F 37% 29.84 in 10.0 mi Calm Calm - N/A   Clear
5:54 AM 45.0 °F 41.8 °F 21.9 °F 40% 29.87 in 10.0 mi SE 5.8 mph - N/A   Clear
6:54 AM 48.0 °F - 21.9 °F 36% 29.89 in 10.0 mi SSE 4.6 mph - N/A   Clear
7:54 AM 54.0 °F - 21.9 °F 29% 29.90 in 10.0 mi SSW 3.5 mph - N/A   Clear
8:54 AM 61.0 °F - 24.1 °F 24% 29.89 in 10.0 mi West 16.1 mph 21.9 mph N/A   Clear
9:54 AM 64.0 °F - 19.9 °F 18% 29.89 in 10.0 mi WNW 12.7 mph 24.2 mph N/A   Clear
10:54 AM 66.9 °F - 19.9 °F 17% 29.86 in 10.0 mi West 17.3 mph 23.0 mph N/A   Clear
11:54 AM 68.0 °F - 18.0 °F 15% 29.83 in 10.0 mi West 12.7 mph - N/A   Clear
12:54 PM 70.0 °F - 18.0 °F 14% 29.80 in 10.0 mi NW 6.9 mph 25.3 mph N/A   Clear
1:54 PM 72.0 °F - 17.1 °F 12% 29.77 in 10.0 mi West 13.8 mph 23.0 mph N/A   Clear
2:54 PM 73.0 °F - 19.0 °F 13% 29.74 in 10.0 mi WSW 18.4 mph 23.0 mph N/A   Clear
3:37 PM 71.6 °F - 19.4 °F 14% 29.93 in 10.0 mi SW 10.4 mph - N/A   Clear
3:54 PM 72.0 °F - 19.9 °F 14% 29.72 in 10.0 mi SW 13.8 mph - N/A   Clear
4:54 PM 72.0 °F - 19.9 °F 14% 29.72 in 10.0 mi SW 16.1 mph 24.2 mph N/A   Partly Cloudy
5:54 PM 69.1 °F - 21.0 °F 16% 29.75 in 10.0 mi WSW 15.0 mph - N/A   Partly Cloudy
6:54 PM 64.9 °F - 21.9 °F 19% 29.76 in 10.0 mi WSW 16.1 mph 25.3 mph N/A   Partly Cloudy
7:54 PM 62.1 °F - 21.9 °F 21% 29.77 in 10.0 mi WSW 15.0 mph - N/A   Clear
8:54 PM 59.0 °F - 23.0 °F 25% 29.78 in 10.0 mi WSW 18.4 mph - N/A   Clear
9:54 PM 57.9 °F - 21.9 °F 25% 29.79 in 10.0 mi WSW 19.6 mph - N/A   Clear
10:54 PM 55.9 °F - 21.9 °F 27% 29.79 in 10.0 mi WSW 13.8 mph - N/A   Clear
11:54 PM 53.1 °F - 21.9 °F 30% 29.81 in 10.0 mi SE 3.5 mph - N/A   Clear